Voltar ao catálogo

STARLINK-33726

AtivoComunicaçõesVLEO
NORAD 63437·PAYLOAD·🇺🇸 United States

Lançado Apr 4, 2025 de Vandenberg Space Force Base

Loading…

Próximas Passagens (próximas 24 horas)

TLE

AtualizadoSource: CelesTrak SupGP

Época: Sep 15, 2026, 03:33 UTC

1 63437C 25069E   26258.14840278  .00006974  00000+0  12512-3 0  2589
2 63437  53.1592 324.8950 0001213  89.0057  78.4272 15.49311772    18

Acompanhe STARLINK-33726 em tempo real com AllMySat

Download on the App Store